Location: Colonial Hills
(40.5656°N, 77.6119°W)
Time: 15:05:08
(UTC+00:00)

X-37B - Visible Passes

Search period start: 12 May 2021 00:00
Search period end: 22 May 2021 00:00
Orbit: 386 x 389 km, 45.0° (Epoch: 08 May)

Date Brightness Start Highest point End Pass type
(mag) Time Alt. Az. Time Alt. Az. Time Alt. Az.
12 May 0.4 02:10:34 10° WNW 02:13:46 78° SSW 02:13:48 77° SSW visible
13 May 0.8 01:12:11 10° WNW 01:15:22 66° NNE 01:17:54 15° E visible
13 May 3.1 02:49:11 10° W 02:50:11 16° WSW 02:50:11 16° WSW visible
14 May 1.2 01:50:31 10° WNW 01:53:33 43° SSW 01:54:18 35° S visible
15 May 0.6 00:52:03 10° WNW 00:55:14 77° SSW 00:58:25 10° ESE visible
15 May 3.2 02:29:54 10° WSW 02:30:45 12° SW 02:30:45 12° SW visible
16 May 2.3 01:30:40 10° W 01:33:17 23° SW 01:34:57 16° S visible
18 May 3.2 01:11:24 10° WSW 01:12:56 13° SW 01:14:27 10° SSW visible
